www.pogodaiklimat.ru

Погода и климат >> Архив погоды >> Кувейт >> Метеостанция Mintribah


ПОГОДА на Метеостанции Mintribah

  • Прогноз погоды на Метеостанции Mintribah
  • Монитор погоды на Метеостанции Mintribah

АРХИВ ПОГОДЫ на Метеостанции Mintribah

Время (UTC), дата Ветер
(напр.,м/с)
 
Видим.   Явления Облачность Т
(С)
Тd
(С)
f
(%)
Тe
(С)
Тes
(С)
Комфортность P
(гПа)
Po
(гПа)
Тmin
(С)
Tmax
(С)
R
(мм)
R24
(мм)
S
(см)
18 16.09 ЮВ 3-4
{9}
19 км н/о +34.2 +11.7 26 +34 +34 очень
жарко
1006.5 993.3
21 16.09 ЮЗ 3-4
{4}
6000 м дымка н/о +29.7 +9.7 29 +30 +30 жарко 1006.4 993.0 +28.9 +46.6
00 17.09 ЮЗ 4-5
{6}
20 км н/о +28.4 +6.3 25 +27 +27 жарко 1005.7 992.2
03 17.09 ЮЗ 5-5
{5}
20 км н/о +26.9 +5.0 25 +26 +26 жарко 1006.7 993.1
06 17.09 ЮЗ 4-4
{6}
17 км н/о +39.5 +6.1 13 +37 +37 очень
жарко
1007.0 994.0
09 17.09 С 3-5
{5}
18 км н/о +46.0 +5.7 9 +43 +43 опасность
перегрева
1004.9 992.2
12 17.09 СЗ 4-7
{10}
19 км н/о +47.0 +3.3 7 +44 +44 опасность
перегрева
1002.9 990.2
15 17.09 В 2-4
{8}
20 км н/о +42.3 +1.6 8 +39 +39 очень
жарко
1003.3 990.4
18 17.09 З 2-4
{8}
16 км н/о +35.6 +2.0 12 +32 +32 жарко 1005.5 992.3
21 17.09 З 4-5
{5}
18 км н/о +31.3 +4.0 18 +29 +29 жарко 1005.3 992.0 +26.9 +48.1
00 18.09 СЗ 5-6
{7}
20 км н/о +30.4 +9.3 27 +30 +30 жарко 1004.6 991.2
03 18.09 З 4-4
{7}
19 км н/о +28.2 +9.9 32 +28 +28 жарко 1006.3 992.8
06 18.09 СЗ 7-8
{8}
19 км н/о +39.9 +9.1 16 +38 +38 очень
жарко
1007.4 994.4
09 18.09 СЗ 6-9
{10}
18 км н/о +46.9 +6.5 9 +44 +44 опасность
перегрева
1005.8 993.1
12 18.09 СЗ 6-8
{13}
17 км н/о +46.9 +3.7 8 +44 +44 опасность
перегрева
1004.6 991.9
15 18.09 СЗ 8-9
{11}
20 км н/о +42.0 +7.5 13 +40 +40 очень
жарко
1005.5 992.6
18 18.09 СЗ 7-8
{11}
19 км н/о +36.3 +8.2 18 +34 +34 очень
жарко
1007.6 994.4
21 18.09 З 7-8
{10}
20 км н/о +32.5 +6.7 20 +31 +31 жарко 1007.7 994.4 +28.1 +48.2
00 19.09 З 9-12
{13}
20 км н/о +31.1 +3.4 17 +29 +29 жарко 1007.1 993.7
03 19.09 З 8-10
{13}
20 км н/о +28.8 +3.3 20 +27 +27 жарко 1008.8 995.3
06 19.09 СЗ 12-15
{15}
9000 м дым н/о +37.5 +2.4 11 +34 +34 очень
жарко
1009.1 996.0
09 19.09 СЗ 13-16
{17}
4500 м дым н/о +44.0 -1.3 6 +40 +40 очень
жарко
1007.6 994.8
12 19.09 СЗ 12-15
{17}
12 км н/о +44.2 +4.9 9 +41 +41 опасность
перегрева
1006.2 993.4
15 19.09 СЗ 8-11
{16}
19 км н/о +38.8 +3.6 11 +36 +36 очень
жарко
1007.3 994.3
18 19.09 З 6-7
{16}
18 км н/о +33.7 +5.1 17 +31 +31 жарко 1008.6 995.3
21 19.09 З 7-8
{8}
19 км н/о +30.0 +5.6 21 +28 +28 жарко 1007.9 994.5 +28.8 +45.4
00 20.09 З 7-8
{9}
20 км н/о +27.6 +5.1 24 +27 +27 жарко 1006.9 993.4
03 20.09 ЮЗ 9-10
{11}
20 км н/о +27.3 +3.8 22 +26 +26 жарко 1006.9 993.4
06 20.09 З 13-17
{17}
5000 м дымка н/о +38.3 +1.2 10 +35 +35 очень
жарко
1006.4 993.3
09 20.09 СЗ 11-15
{19}
16 км н/о +42.6 +2.0 8 +39 +39 очень
жарко
1004.4 991.5
12 20.09 СЗ 8-11
{19}
18 км н/о +44.0 -0.8 6 +40 +40 очень
жарко
1003.1 990.3
15 20.09 СЗ 4-4
{12}
19 км н/о +38.1 -1.5 8 +34 +34 очень
жарко
1003.8 990.8
18 20.09 СЗ 3-3
{12}
19 км н/о +31.0 -3.0 11 +28 +28 жарко 1005.6 992.2
21 20.09 З 5-5
{6}
20 км н/о +28.2 +0.1 16 +26 +26 жарко 1004.9 991.4 +27.0 +44.9
00 21.09 ЮЗ 3-3
{6}
19 км н/о +26.1 +5.9 27 +25 +25 комфорт 1003.7 990.2
03 21.09 З 3-3
{4}
19 км н/о +24.2 +6.6 32 +24 +24 комфорт 1005.0 991.3
06 21.09 СЗ 2-3
{4}
19 км н/о +35.8 +7.1 17 +34 +34 очень
жарко
1005.4 992.3
09 21.09 СВ 3-5
{5}
17 км н/о +41.7 +4.7 11 +39 +39 очень
жарко
1004.1 991.2
12 21.09 С 4-7
{7}
19 км н/о +43.4 +4.6 10 +41 +41 опасность
перегрева
1002.0 989.2
15 21.09 В 3-5
{7}
17 км н/о +38.3 +10.4 19 +37 +37 очень
жарко
1002.2 989.2
18 21.09 ЮВ 4-5
{7}
19 км н/о +31.7 +18.0 44 +36 +36 очень
душно
1004.1 990.8
21 21.09 Ю 4-6
{9}
20 км н/о +29.6 +11.5 33 +30 +30 жарко 1004.0 990.6 +24.1 +44.4
00 22.09 ЮЗ 4-4
{9}
18 км н/о +26.5 +13.7 45 +29 +29 жарко 1004.0 990.5
03 22.09 ЮЗ 5-6
{6}
19 км н/о +26.0 +7.4 31 +26 +26 жарко 1005.4 991.8
06 22.09 З 4-6
{6}
16 км н/о +36.7 +8.6 18 +35 +35 очень
жарко
1006.5 993.4
09 22.09 З 1-3
{6}
17 км н/о +44.1 +8.3 12 +42 +42 опасность
перегрева
1005.0 992.2
12 22.09 СВ 3-4
{6}
19 км н/о +45.2 +7.1 10 +43 +43 опасность
перегрева
1003.2 990.5
15 22.09 ЮВ 3-5
{7}
20 км н/о +39.4 +9.5 17 +38 +38 очень
жарко
1004.0 991.0
21 22.09 З 3-3
{4}
13 км н/о +30.6 +6.8 22 +29 +29 жарко 1006.2 992.8 +25.5 +45.9
06 23.09 З 4-6
{7}
19 км н/о +36.2 +6.6 16 +34 +34 очень
жарко
1008.7 995.5
12 23.09 З 5-7
{8}
20 км н/о +45.0 +5.9 10 +42 +42 опасность
перегрева
1005.3 992.5

 

Местоположение метеостанции Метеостанция Mintribah (Кувейт): широта 29.82 долгота 47.37 высота над уровнем моря 119 м.

В архиве по умолчанию представлена погода на Метеостанции Mintribah за последнюю неделю. Архивные данные за месяц целиком и за предыдущие месяцы, начиная с января 2011 года, Вы можете получить, выбрав интересующий диапазон дат из раскрывающегося списка и нажав кнопку "Ввод!".


*Определитесь, кто Вы:
робот инопланетянин человек

Внимание! Время в таблицах - всемирное. Для получения местного времени необходимо прибавить поправку, которая равна 3 ч.

Смотрите также архив погоды в соседних городах и на ближайших метеорологических станциях:

Погода на Метеостанции Jal Aliyah (Кувейт) (31 км)
Погода в Абдали (Кувейт) (43 км)
Погода на Метеостанции Sabriyah (Кувейт) (47 км)
Погода в Эль-Джахра (Кувейт) (63 км)
Погода на Абраке Аль Хабари (Кувейт) (68 км)
Погода в Сулайбии (Кувейт) (70 км)
Погода на Экспериментальной ферме (Кувейт) (81 км)
Погода в Минагише (Кувейт) (85 км)
Погода в Кувейт Сити (Кувейт) (85 км)
Погода в Басре аэропорт (Ирак) (87 км)

Пояснения к столбцам:

Ветер - указаны скорость ветра в м/с - средняя за 10 мин, порывы в срок и между сроками (в фигурных скобках) и направление, откуда дует ветер: С - северный, СВ - северо-восточный, В - восточный, ЮВ - юго-восточный, Ю - южный, ЮЗ - юго-западный, З - западный, СЗ - северо-западный.
Видимость - горизонтальная дальность видимости в метрах или километрах. При видимости от 1 до 10 км при отсутствии осадков обычно наблюдается дымка, при ухудшении видимости до 1 км и менее - туман. В сухую погоду видимость может ухудшаться дымом, пылью или мглою.
Явления - указаны атмосферные явления, наблюдавшиеся в срок или в последний час перед сроком; фигурными скобками обозначены явления, наблюдавшиеся между сроками (за 1-3 часа до срока); квадратными скобками обозначены град или гололедные отложения с указанием их диаметра в мм.
Облачность - указаны через наклонную черту общая и нижняя облачность в баллах и высота нижней границы облаков в метрах; квадратными скобками обозначены формы облаков: Ci - перистые, Cs - перисто-слоистые, Cc - перисто-кучевые, Ac - высококучевые, As - высокослоистые, Sc - слоисто-кучевые, Ns - слоисто-дождевые, Cu - кучевые, Cb - кучево-дождевые. Подробнее классификацию облаков см. в Атласе облаков (PDF).
T - Температура воздуха - температура, измеренная на высоте 2 м над землей.
Td - Температура точки росы - температура, при понижении до которой содержащийся в воздухе водяной пар достигнет насыщения.
f - Относительная влажность воздуха - влажноcть воздуха, измеренная на высоте 2 м над землей.
Te - Эффективная температура - температура, которую ощущает одетый по сезону человек в тени. Характеристика душности погоды. При расчете учитывается влияние влажности воздуха и скорости ветра на теплоощущения человека.
Tes - Эффективная температура на солнце - температура, которую ощущает человек, с поправкой на солнечный нагрев. Характеристика знойности погоды. Зависит от высоты солнца над горизонтом, облачности и скорости ветра. Ночью, в пасмурную погоду, а также при ветре 12 м/с и более поправка равна нулю.
P - Атмосферное давление - приведенное к уровню моря атмосферное давление.
Po - Атмосферное давление - измеренное на уровне метеостанции атмосферное давление.
Tmin - Минимальная температура - минимум температуры воздуха на высоте 2 м над землей.
Tmax - Максимальная температура - максимум температуры воздуха на высоте 2 м над землей.
R - Количество осадков - Количество выпавших осадков за период времени, мм. При наведении курсора мыши на число - период времени, за который выпало указанное количество осадков.
R24 - Количество осадков - Количество выпавших осадков за 24 часа, мм.
S - Снежный покров - Высота снежного покрова, см. При наведении курсора мыши на число - состояние снежного покрова и степень покрытия местности в баллах.